Flag for Romania Weather past 2 weeks in Cluj-Napoca, Romania

Now
57 °F

Broken clouds.


Feels Like: 57 °F
Forecast: 47 / 64 °F
Wind: 5 mph from Southeast

Location: Cluj Airport-Napoca

Current Time: Oct 21, 2014 at 1:43:11 PM

Latest Report: Oct 21, 2014 at 1:00 PM


Visibility: N/A

Pressure: 29.89 "Hg

Humidity: 82%

Dew point: 52 °F

Location of Cluj-NapocaLocation

Historic Weather in Cluj-Napoca — Graph

°F

Cluj-Napoca temperature yesterday

Maximum temperature yesterday: 61 °F (at 3:00 PM)
Minimum temperature yesterday: 37 °F (at 5:30 AM)
Average temperature yesterday: 49 °F

Past Weeks' High & Low Weather Summary

 TemperatureHumidityPressure
High77 °F (Oct 14, 4:00 PM)100% (Oct 10, 3:00 AM)30.42 "Hg (Oct 10, 3:00 AM)
Low37 °F (Oct 20, 5:30 AM)34% (Oct 6, 3:00 PM)29.80 "Hg (Oct 15, 5:30 PM)
Average57 °F77%30.07 "Hg
* Reported Oct 6 12:00 Noon — Oct 21 12:30 PM, Cluj-Napoca, Weather by CustomWeather, © 2014

Note: Actual official high and low records may vary slightly from our data, if they occured in-between our weather recording intervals... More about our weather records

Advertising

Cluj-Napoca weather history for previous 24 hours

 ConditionsComfort  
Time TempWeatherWind HumidityBarometerVisibility
12:30 PM
Oct 21
57 °FBroken clouds.7 mph82%29.89 "HgN/A
12:00 PM57 °FScattered clouds.No wind82%29.89 "HgN/A
11:30 AM55 °FPassing clouds.No wind88%29.89 "Hg5 mi
11:00 AM54 °FPassing clouds.5 mph94%29.89 "Hg4 mi
10:30 AM55 °FClear.No wind88%29.89 "Hg4 mi
10:00 AM52 °FFog.No wind94%29.89 "Hg3 mi
9:30 AM52 °FFog.No wind94%29.89 "Hg3 mi
9:00 AM50 °FPassing clouds.No wind94%29.89 "Hg4 mi
8:30 AM50 °FFog.No wind94%29.89 "Hg3 mi
8:00 AM50 °FFog.No wind94%29.89 "Hg2 mi
7:30 AM50 °FClear.No wind94%29.89 "Hg4 mi
7:00 AM50 °FClear.No wind94%29.92 "Hg5 mi
6:00 AM50 °FClear.7 mph94%29.92 "Hg10 mi
5:30 AM50 °FClear.2 mph94%29.92 "Hg10 mi
5:00 AM52 °FClear.No wind94%29.92 "Hg10 mi
4:00 AM52 °FPassing clouds.No wind94%29.95 "HgN/A
3:00 AM54 °FPassing clouds.No wind88%29.95 "HgN/A
2:00 AM54 °FPassing clouds.No wind82%29.95 "HgN/A
12:00 AM52 °FPassing clouds.No wind88%30.01 "HgN/A
11:30 PM
Oct 20
52 °FPassing clouds.2 mph88%30.01 "HgN/A
10:30 PM52 °FPassing clouds.5 mph88%30.01 "HgN/A
10:00 PM52 °FPassing clouds.5 mph82%30.04 "HgN/A
9:30 PM52 °FPassing clouds.2 mph88%30.04 "HgN/A
9:00 PM52 °FPassing clouds.2 mph88%30.04 "HgN/A
8:30 PM52 °FPassing clouds.2 mph88%30.04 "HgN/A
8:00 PM54 °FPassing clouds.2 mph82%30.04 "HgN/A
7:30 PM55 °FPassing clouds.5 mph77%30.04 "HgN/A
7:00 PM55 °FSunny.5 mph77%30.04 "Hg10 mi
6:30 PM57 °FSunny.7 mph72%30.04 "Hg10 mi
6:00 PM59 °FPassing clouds.5 mph68%30.04 "HgN/A
5:30 PM61 °FSunny.5 mph63%30.04 "Hg10 mi
5:00 PM61 °FSunny.9 mph59%30.04 "Hg10 mi
4:30 PM61 °FSunny.7 mph59%30.04 "Hg10 mi
4:00 PM61 °FSunny.9 mph59%30.07 "Hg10 mi
3:30 PM61 °FPassing clouds.9 mph55%30.07 "HgN/A
3:00 PM61 °FSunny.9 mph59%30.07 "Hg10 mi
2:30 PM59 °FPassing clouds.9 mph63%30.07 "HgN/A
2:00 PM59 °FPassing clouds.7 mph63%30.09 "HgN/A
1:30 PM55 °FPassing clouds.7 mph77%30.12 "HgN/A
1:00 PM52 °FPassing clouds.5 mph88%30.12 "HgN/A
Weather by CustomWeather, © 2014

See weather overviewHow to use our weather pages